Regional Weather Roundup
Issued by NWS

Home | Current Version | Previous Version | Graphics & Text | Print | Product List | Glossary On
Versions: 1 2 3 4 5 6 7 8 9 10 11 12 13 14 15 16 17 18 19 20 21 22 23 24 25 26 27 28 29 30 31 32 33 34 35 36 37 38 39 40 41 42 43 44 45 46 47 48 49 50
000
ASUS43 KBIS 250110
RWRND

NORTH DAKOTA REGIONAL WEATHER ROUNDUP
NATIONAL WEATHER SERVICE BISMARCK ND
800 PM CDT SUN MAY 24 2015

NOTE: "FAIR" INDICATES FEW OR NO CLOUDS BELOW 12,000 FEET WITH NO
SIGNIFICANT WEATHER AND/OR OBSTRUCTIONS TO VISIBILITY.


NDZ001>003-009>011-017-250200-
NORTHWEST NORTH DAKOTA

CITY           SKY/WX    TMP DP  RH WIND       PRES   REMARKS
WILLISTON      MOSUNNY   73  38  27 E10       29.90F
MINOT          PTSUNNY   70  42  36 E12       29.90F
MINOT AFB      PTSUNNY   73  44  35 E9        29.89F
$$

NDZ018>021-031>035-040>046-250200-
SOUTHWEST NORTH DAKOTA

CITY           SKY/WX    TMP DP  RH WIND       PRES   REMARKS
BISMARCK       CLOUDY    64  51  62 E6        29.90S
DICKINSON      CLOUDY    61  50  67 NE6       29.90F
GARRISON         N/A     68  47  46 SE6       29.91F
HETTINGER ARPT CLOUDY    59  49  69 NE12      29.91F
$$

NDZ004>008-012>016-024-026-027-054-250200-
NORTHEAST NORTH DAKOTA

CITY           SKY/WX    TMP DP  RH WIND       PRES   REMARKS
GRAND FORKS    CLOUDY    71  48  43 S8        29.89F
GRND FRKS AFB  CLOUDY    71  50  47 S8        29.90S
DEVILS LAKE    CLOUDY    70  48  46 E9        29.91S
$$

NDZ022-023-025-028>030-036>039-047>053-250200-
SOUTHEAST NORTH DAKOTA

CITY           SKY/WX    TMP DP  RH WIND       PRES   REMARKS
FARGO          CLOUDY    68  54  60 SE3       29.88F
JAMESTOWN      LGT RAIN  62  52  69 SE6       29.90S
$$




USA.gov is the U.S. government's official web portal to all federal, state and local government web resources and services.